Time,TemperatureF,DewpointF,PressureIn,WindDirection,WindDirectionDegrees,WindSpeedMPH,WindSpeedGustMPH,Humidity,HourlyPrecipIn,Conditions,Clouds,dailyrainin,SoftwareType,DateUTC
2013-06-10 00:03:00,61.0,53.0,30.15,WNW,288,0.0,0.0,75,0.00,,,0.00,,2013-06-10 04:03:00,
2013-06-10 00:13:00,61.0,53.0,30.15,WNW,288,0.0,0.0,75,0.00,,,0.00,,2013-06-10 04:13:00,
2013-06-10 00:23:00,61.0,53.0,30.14,WNW,288,0.0,1.0,75,0.00,,,0.00,,2013-06-10 04:23:00,
2013-06-10 00:33:00,60.0,52.0,30.14,WNW,288,0.0,2.0,75,0.00,,,0.00,,2013-06-10 04:33:00,
2013-06-10 00:42:00,60.0,52.0,30.14,WNW,288,0.0,2.0,75,0.00,,,0.00,,2013-06-10 04:42:00,
2013-06-10 00:52:00,60.0,52.0,30.14,WNW,288,0.0,0.0,75,0.00,,,0.00,,2013-06-10 04:52:00,
2013-06-10 01:02:00,60.0,52.0,30.14,WNW,288,0.0,2.0,75,0.00,,,0.00,,2013-06-10 05:02:00,
2013-06-10 01:12:00,60.0,52.0,30.14,WNW,288,0.0,2.0,75,0.00,,,0.00,,2013-06-10 05:12:00,
2013-06-10 01:22:00,59.0,51.0,30.14,WNW,288,0.0,0.0,75,0.00,,,0.00,,2013-06-10 05:22:00,
2013-06-10 01:32:00,59.0,51.0,30.15,WNW,288,0.0,0.0,75,0.00,,,0.00,,2013-06-10 05:32:00,
2013-06-10 01:42:00,59.0,51.0,30.15,WNW,288,0.0,0.0,75,0.00,,,0.00,,2013-06-10 05:42:00,
2013-06-10 01:52:00,59.0,51.0,30.15,WNW,288,0.0,0.0,75,0.00,,,0.00,,2013-06-10 05:52:00,
2013-06-10 02:02:00,59.0,51.0,30.15,WNW,288,0.0,1.0,75,0.00,,,0.00,,2013-06-10 06:02:00,
2013-06-10 02:12:00,59.0,51.0,30.15,WNW,288,0.0,1.0,75,0.00,,,0.00,,2013-06-10 06:12:00,
2013-06-10 02:22:00,59.0,51.0,30.14,WNW,289,0.0,0.0,75,0.00,,,0.00,,2013-06-10 06:22:00,
2013-06-10 02:32:00,59.0,51.0,30.14,WNW,289,0.0,0.0,75,0.00,,,0.00,,2013-06-10 06:32:00,
2013-06-10 02:42:00,59.0,51.0,30.14,WNW,289,0.0,0.0,75,0.00,,,0.00,,2013-06-10 06:42:00,
2013-06-10 02:52:00,59.0,51.0,30.14,WNW,288,0.0,1.0,75,0.00,,,0.00,,2013-06-10 06:52:00,
2013-06-10 03:02:00,59.0,51.0,30.14,WNW,288,0.0,1.0,75,0.00,,,0.00,,2013-06-10 07:02:00,
2013-06-10 03:12:00,59.0,51.0,30.14,WNW,288,0.0,1.0,75,0.00,,,0.00,,2013-06-10 07:12:00,
2013-06-10 03:22:00,59.0,51.0,30.14,WNW,289,0.0,1.0,75,0.00,,,0.00,,2013-06-10 07:22:00,
2013-06-10 03:32:00,59.0,51.0,30.14,WNW,290,0.0,1.0,75,0.00,,,0.00,,2013-06-10 07:32:00,
2013-06-10 03:42:00,59.0,51.0,30.14,WNW,290,0.0,1.0,75,0.00,,,0.00,,2013-06-10 07:42:00,
2013-06-10 03:52:00,59.0,51.0,30.13,WNW,289,0.0,1.0,76,0.00,,,0.00,,2013-06-10 07:52:00,
2013-06-10 04:02:00,59.0,51.0,30.14,WNW,289,0.0,0.0,76,0.00,,,0.00,,2013-06-10 08:02:00,
2013-06-10 04:12:00,59.0,51.0,30.14,WNW,289,0.0,0.0,76,0.00,,,0.00,,2013-06-10 08:12:00,
2013-06-10 04:22:00,59.0,51.0,30.13,WNW,289,0.0,0.0,76,0.00,,,0.00,,2013-06-10 08:22:00,
2013-06-10 04:32:00,59.0,51.0,30.14,WNW,289,0.0,1.0,76,0.00,,,0.00,,2013-06-10 08:32:00,
2013-06-10 04:42:00,59.0,51.0,30.14,WNW,289,0.0,1.0,76,0.00,,,0.00,,2013-06-10 08:42:00,
2013-06-10 04:52:00,59.0,51.0,30.13,WNW,289,0.0,0.0,76,0.00,,,0.00,,2013-06-10 08:52:00,
2013-06-10 05:02:00,59.0,51.0,30.13,WNW,289,0.0,0.0,76,0.00,,,0.00,,2013-06-10 09:02:00,
2013-06-10 05:12:00,59.0,51.0,30.13,WNW,289,0.0,0.0,76,0.00,,,0.00,,2013-06-10 09:12:00,
2013-06-10 05:22:00,60.0,52.0,30.13,WNW,289,0.0,1.0,76,0.00,,,0.00,,2013-06-10 09:22:00,
2013-06-10 05:32:00,60.0,52.0,30.13,WNW,289,0.0,1.0,76,0.00,,,0.00,,2013-06-10 09:32:00,
2013-06-10 05:42:00,60.0,52.0,30.13,WNW,289,0.0,1.0,76,0.00,,,0.00,,2013-06-10 09:42:00,
2013-06-10 05:53:00,60.0,52.0,30.13,WNW,289,0.0,0.0,76,0.00,,,0.00,,2013-06-10 09:53:00,
2013-06-10 06:03:00,60.0,52.0,30.13,WNW,289,0.0,0.0,76,0.00,,,0.00,,2013-06-10 10:03:00,
2013-06-10 06:12:00,60.0,52.0,30.13,WNW,289,0.0,0.0,76,0.00,,,0.00,,2013-06-10 10:12:00,
2013-06-10 06:23:00,60.0,52.0,30.12,WNW,289,0.0,0.0,76,0.00,,,0.00,,2013-06-10 10:23:00,
2013-06-10 06:33:00,60.0,52.0,30.13,WNW,288,0.0,1.0,76,0.00,,,0.00,,2013-06-10 10:33:00,
2013-06-10 06:42:00,60.0,52.0,30.13,WNW,288,0.0,1.0,76,0.00,,,0.00,,2013-06-10 10:42:00,
2013-06-10 06:52:00,61.0,53.0,30.13,WNW,289,0.0,0.0,76,0.00,,,0.00,,2013-06-10 10:52:00,
2013-06-10 07:03:00,61.0,53.0,30.12,WNW,288,0.0,0.0,76,0.00,,,0.00,,2013-06-10 11:03:00,
2013-06-10 07:12:00,61.0,53.0,30.12,WNW,288,0.0,0.0,76,0.00,,,0.00,,2013-06-10 11:12:00,
2013-06-10 07:22:00,61.0,53.0,30.12,WNW,288,0.0,0.0,76,0.00,,,0.00,,2013-06-10 11:22:00,
2013-06-10 07:32:00,61.0,53.0,30.12,WNW,288,0.0,2.0,76,0.00,,,0.00,,2013-06-10 11:32:00,
2013-06-10 07:42:00,61.0,53.0,30.12,WNW,288,0.0,2.0,76,0.00,,,0.00,,2013-06-10 11:42:00,
2013-06-10 07:52:00,62.0,54.0,30.12,WNW,289,0.0,1.0,76,0.00,,,0.00,,2013-06-10 11:52:00,
2013-06-10 08:02:00,62.0,54.0,30.12,WNW,289,0.0,0.0,76,0.00,,,0.00,,2013-06-10 12:02:00,
2013-06-10 08:12:00,62.0,54.0,30.12,WNW,289,0.0,0.0,76,0.00,,,0.00,,2013-06-10 12:12:00,
2013-06-10 08:22:00,62.0,54.0,30.12,WNW,288,0.0,0.0,76,0.00,,,0.00,,2013-06-10 12:22:00,
2013-06-10 08:32:00,62.0,54.0,30.12,WNW,289,0.0,0.0,76,0.00,,,0.00,,2013-06-10 12:32:00,
2013-06-10 08:42:00,62.0,54.0,30.12,WNW,289,0.0,0.0,76,0.00,,,0.00,,2013-06-10 12:42:00,
2013-06-10 08:52:00,62.0,54.0,30.12,WNW,288,0.0,0.0,75,0.00,,,0.00,,2013-06-10 12:52:00,
2013-06-10 09:02:00,63.0,55.0,30.12,WNW,288,0.0,0.0,75,0.00,,,0.00,,2013-06-10 13:02:00,
2013-06-10 09:12:00,63.0,55.0,30.12,WNW,288,0.0,0.0,75,0.00,,,0.00,,2013-06-10 13:12:00,
2013-06-10 09:22:00,63.0,55.0,30.13,WNW,286,0.0,0.0,75,0.00,,,0.00,,2013-06-10 13:22:00,
2013-06-10 09:32:00,64.0,56.0,30.13,WNW,287,0.0,2.0,75,0.00,,,0.00,,2013-06-10 13:32:00,
2013-06-10 09:42:00,64.0,56.0,30.13,WNW,287,0.0,2.0,75,0.00,,,0.00,,2013-06-10 13:42:00,
2013-06-10 09:52:00,64.0,56.0,30.12,SSE,157,0.0,2.0,75,0.00,,,0.00,,2013-06-10 13:52:00,
2013-06-10 10:02:00,65.0,57.0,30.11,SE,127,1.0,6.0,75,0.00,,,0.00,,2013-06-10 14:02:00,
2013-06-10 10:12:00,65.0,57.0,30.11,SE,127,1.0,6.0,75,0.00,,,0.00,,2013-06-10 14:12:00,
2013-06-10 10:22:00,65.0,57.0,30.11,SE,127,0.0,3.0,75,0.00,,,0.00,,2013-06-10 14:22:00,
2013-06-10 10:32:00,66.0,58.0,30.11,SE,128,0.0,3.0,75,0.00,,,0.00,,2013-06-10 14:32:00,
2013-06-10 10:42:00,66.0,58.0,30.11,SE,128,0.0,3.0,75,0.00,,,0.00,,2013-06-10 14:42:00,
2013-06-10 10:52:00,66.0,58.0,30.11,SE,124,0.0,5.0,75,0.00,,,0.00,,2013-06-10 14:52:00,
2013-06-10 11:03:00,67.0,59.0,30.10,ESE,115,0.0,5.0,75,0.00,,,0.00,,2013-06-10 15:03:00,
2013-06-10 11:12:00,67.0,59.0,30.10,ESE,115,0.0,5.0,75,0.00,,,0.00,,2013-06-10 15:12:00,
2013-06-10 11:22:00,68.0,60.0,30.10,ESE,112,2.0,5.0,75,0.00,,,0.00,,2013-06-10 15:22:00,
2013-06-10 11:33:00,69.0,61.0,30.09,SE,130,2.0,6.0,76,0.00,,,0.00,,2013-06-10 15:33:00,
2013-06-10 11:43:00,69.0,61.0,30.09,SE,130,2.0,6.0,76,0.00,,,0.00,,2013-06-10 15:43:00,
2013-06-10 11:53:00,69.0,61.0,30.09,SSE,165,2.0,6.0,76,0.00,,,0.00,,2013-06-10 15:53:00,
2013-06-10 12:03:00,70.0,62.0,30.09,SSW,209,3.0,7.0,76,0.00,,,0.00,,2013-06-10 16:03:00,
2013-06-10 12:13:00,70.0,62.0,30.09,SSW,209,3.0,7.0,76,0.00,,,0.00,,2013-06-10 16:13:00,
2013-06-10 12:23:00,70.0,62.0,30.09,ESE,105,2.0,6.0,76,0.00,,,0.00,,2013-06-10 16:23:00,
2013-06-10 12:33:00,70.0,62.0,30.08,SSE,153,1.0,6.0,76,0.00,,,0.00,,2013-06-10 16:33:00,
2013-06-10 12:43:00,70.0,62.0,30.08,East,101,1.0,6.0,76,0.00,,,0.00,,2013-06-10 16:43:00,
2013-06-10 12:52:00,70.0,62.0,30.08,East,101,1.0,6.0,76,0.00,,,0.00,,2013-06-10 16:52:00,
2013-06-10 13:03:00,70.0,62.0,30.07,ESE,106,0.0,5.0,76,0.00,,,0.00,,2013-06-10 17:03:00,
2013-06-10 13:14:00,69.0,61.0,30.07,SE,132,2.0,5.0,76,0.00,,,0.00,,2013-06-10 17:14:00,
2013-06-10 13:27:00,69.0,61.0,30.07,SE,132,2.0,5.0,76,0.00,,,0.00,,2013-06-10 17:27:00,
2013-06-10 13:38:00,68.0,60.0,30.07,SW,217,3.0,7.0,75,0.03,,,0.03,,2013-06-10 17:38:00,
2013-06-10 13:48:00,68.0,60.0,30.06,SSW,211,1.0,3.0,75,0.05,,,0.05,,2013-06-10 17:48:00,
2013-06-10 13:57:00,68.0,60.0,30.06,SSW,211,1.0,3.0,75,0.05,,,0.05,,2013-06-10 17:57:00,
2013-06-10 14:08:00,67.0,59.0,30.05,SSE,168,1.0,3.0,75,0.12,,,0.12,,2013-06-10 18:08:00,
2013-06-10 14:14:00,67.0,59.0,30.05,SSE,168,1.0,3.0,75,0.12,,,0.12,,2013-06-10 18:14:00,
2013-06-10 14:25:00,66.0,58.0,30.05,SE,127,4.0,10.0,75,0.16,,,0.16,,2013-06-10 18:25:00,
2013-06-10 14:35:00,66.0,58.0,30.03,WSW,238,1.0,13.0,75,0.17,,,0.20,,2013-06-10 18:35:00,
2013-06-10 14:48:00,66.0,58.0,30.03,WSW,238,1.0,13.0,75,0.17,,,0.20,,2013-06-10 18:48:00,
2013-06-10 14:55:00,66.0,58.0,30.03,South,177,2.0,8.0,75,0.17,,,0.22,,2013-06-10 18:55:00,
2013-06-10 15:03:00,66.0,58.0,30.03,South,169,4.0,12.0,75,0.12,,,0.24,,2013-06-10 19:03:00,
2013-06-10 15:13:00,66.0,58.0,30.03,South,169,4.0,12.0,75,0.12,,,0.24,,2013-06-10 19:13:00,
2013-06-10 15:22:00,65.0,57.0,30.02,NE,45,2.0,16.0,75,0.09,,,0.25,,2013-06-10 19:22:00,
2013-06-10 15:33:00,65.0,57.0,30.01,SSE,158,1.0,12.0,75,0.06,,,0.26,,2013-06-10 19:33:00,
2013-06-10 15:43:00,65.0,57.0,30.01,SSE,158,1.0,12.0,75,0.06,,,0.26,,2013-06-10 19:43:00,
2013-06-10 15:53:00,66.0,58.0,30.01,SW,228,1.0,18.0,75,0.06,,,0.28,,2013-06-10 19:53:00,
2013-06-10 16:03:00,65.0,57.0,30.00,SE,136,2.0,12.0,75,0.06,,,0.30,,2013-06-10 20:03:00,
2013-06-10 16:12:00,65.0,57.0,30.00,SE,136,2.0,12.0,75,0.06,,,0.30,,2013-06-10 20:12:00,
2013-06-10 16:23:00,65.0,57.0,30.00,SSE,158,6.0,14.0,75,0.07,,,0.32,,2013-06-10 20:23:00,
2013-06-10 16:32:00,65.0,57.0,29.98,SW,218,3.0,12.0,75,0.09,,,0.35,,2013-06-10 20:32:00,
2013-06-10 16:43:00,65.0,57.0,29.98,SW,218,3.0,12.0,75,0.09,,,0.35,,2013-06-10 20:43:00,
2013-06-10 16:52:00,64.0,56.0,29.98,South,176,3.0,13.0,75,0.08,,,0.36,,2013-06-10 20:52:00,
2013-06-10 17:02:00,64.0,56.0,29.98,South,175,3.0,12.0,75,0.11,,,0.41,,2013-06-10 21:02:00,
2013-06-10 17:12:00,64.0,56.0,29.98,South,175,3.0,12.0,75,0.11,,,0.41,,2013-06-10 21:12:00,
2013-06-10 17:23:00,64.0,56.0,29.98,SE,142,2.0,12.0,75,0.12,,,0.44,,2013-06-10 21:23:00,
2013-06-10 17:33:00,64.0,56.0,29.97,South,182,3.0,7.0,75,0.15,,,0.50,,2013-06-10 21:33:00,
2013-06-10 17:43:00,64.0,56.0,29.97,South,182,3.0,7.0,75,0.15,,,0.50,,2013-06-10 21:43:00,
2013-06-10 17:53:00,64.0,56.0,29.97,South,173,3.0,8.0,76,0.17,,,0.53,,2013-06-10 21:53:00,
2013-06-10 18:03:00,63.0,55.0,29.95,South,174,2.0,10.0,75,0.21,,,0.62,,2013-06-10 22:03:00,
2013-06-10 18:13:00,63.0,55.0,29.95,South,174,2.0,10.0,75,0.21,,,0.62,,2013-06-10 22:13:00,
2013-06-10 18:22:00,63.0,55.0,29.95,South,176,3.0,12.0,76,0.24,,,0.68,,2013-06-10 22:22:00,
2013-06-10 18:33:00,63.0,55.0,29.94,ESE,106,3.0,12.0,76,0.23,,,0.73,,2013-06-10 22:33:00,
2013-06-10 18:42:00,63.0,55.0,29.94,SE,124,1.0,5.0,76,0.22,,,0.75,,2013-06-10 22:42:00,
2013-06-10 18:52:00,63.0,55.0,29.94,SE,124,1.0,5.0,76,0.22,,,0.75,,2013-06-10 22:52:00,
2013-06-10 19:03:00,62.0,54.0,29.94,SSE,165,2.0,5.0,76,0.19,,,0.81,,2013-06-10 23:03:00,
2013-06-10 19:12:00,62.0,54.0,29.94,SSE,165,2.0,5.0,76,0.19,,,0.81,,2013-06-10 23:12:00,
2013-06-10 19:22:00,62.0,54.0,29.94,SSE,148,3.0,8.0,76,0.16,,,0.84,,2013-06-10 23:22:00,
2013-06-10 19:32:00,62.0,54.0,29.93,East,86,1.0,9.0,76,0.17,,,0.90,,2013-06-10 23:32:00,
2013-06-10 19:42:00,62.0,54.0,29.93,East,86,1.0,9.0,76,0.17,,,0.90,,2013-06-10 23:42:00,
2013-06-10 19:52:00,62.0,54.0,29.93,SSE,147,2.0,5.0,76,0.16,,,0.91,,2013-06-10 23:52:00,
2013-06-10 20:02:00,62.0,54.0,29.93,SE,141,2.0,6.0,76,0.12,,,0.93,,2013-06-11 00:02:00,
2013-06-10 20:12:00,62.0,54.0,29.93,SSE,160,3.0,8.0,76,0.09,,,0.93,,2013-06-11 00:12:00,
2013-06-10 20:22:00,62.0,54.0,29.93,SSE,160,3.0,8.0,76,0.09,,,0.93,,2013-06-11 00:22:00,
2013-06-10 20:32:00,62.0,54.0,29.92,ESE,111,1.0,8.0,76,0.03,,,0.93,,2013-06-11 00:32:00,
2013-06-10 20:43:00,62.0,54.0,29.92,ESE,111,1.0,8.0,76,0.03,,,0.93,,2013-06-11 00:43:00,
2013-06-10 20:52:00,61.0,53.0,29.91,ESE,106,3.0,7.0,76,0.02,,,0.93,,2013-06-11 00:52:00,
2013-06-10 21:02:00,61.0,53.0,29.90,ENE,57,3.0,8.0,76,0.02,,,0.95,,2013-06-11 01:02:00,
2013-06-10 21:12:00,61.0,53.0,29.90,ENE,57,3.0,8.0,76,0.02,,,0.95,,2013-06-11 01:12:00,
2013-06-10 21:22:00,61.0,53.0,29.90,SE,128,3.0,9.0,76,0.03,,,0.96,,2013-06-11 01:22:00,
2013-06-10 21:33:00,61.0,54.0,29.89,SW,214,3.0,9.0,77,0.03,,,0.96,,2013-06-11 01:33:00,
2013-06-10 21:42:00,61.0,54.0,29.89,SW,214,3.0,9.0,77,0.03,,,0.96,,2013-06-11 01:42:00,
2013-06-10 21:52:00,61.0,54.0,29.88,SSW,209,2.0,8.0,77,0.03,,,0.96,,2013-06-11 01:52:00,
2013-06-10 22:03:00,61.0,54.0,29.88,ESE,113,3.0,9.0,77,0.02,,,0.97,,2013-06-11 02:03:00,
2013-06-10 22:12:00,61.0,54.0,29.88,ESE,113,3.0,9.0,77,0.02,,,0.97,,2013-06-11 02:12:00,
2013-06-10 22:22:00,60.0,53.0,29.87,SSW,211,6.0,13.0,77,0.01,,,0.97,,2013-06-11 02:22:00,
2013-06-10 22:32:00,60.0,53.0,29.86,SE,135,2.0,12.0,77,0.04,,,1.00,,2013-06-11 02:32:00,
2013-06-10 22:42:00,60.0,53.0,29.87,SSE,148,1.0,8.0,77,0.04,,,1.00,,2013-06-11 02:42:00,
2013-06-10 22:52:00,60.0,53.0,29.87,SSE,148,1.0,8.0,77,0.04,,,1.00,,2013-06-11 02:52:00,
2013-06-10 23:03:00,60.0,53.0,29.86,SSE,155,1.0,12.0,77,0.07,,,1.04,,2013-06-11 03:03:00,
2013-06-10 23:13:00,60.0,53.0,29.86,ESE,117,2.0,9.0,77,0.10,,,1.07,,2013-06-11 03:13:00,
2013-06-10 23:22:00,60.0,53.0,29.86,ESE,117,2.0,9.0,77,0.10,,,1.07,,2013-06-11 03:22:00,
2013-06-10 23:32:00,60.0,53.0,29.84,SSE,162,3.0,9.0,77,0.07,,,1.07,,2013-06-11 03:32:00,
2013-06-10 23:43:00,60.0,53.0,29.83,SE,137,3.0,9.0,77,0.07,,,1.07,,2013-06-11 03:43:00,
2013-06-10 23:53:00,60.0,53.0,29.83,SE,137,3.0,9.0,77,0.07,,,1.07,,2013-06-11 03:53:00,